Content
SEND FEEDBACK

Daily
Averages
Monthly
Summary
Mexico

SAN MARTINIANO, QUINTANA ROO


Home > North America > Mexico > Quintana Roo
Elevation: 49 feet     Latitude: 20 47N     Longitude: 087 16W

WEATHER
 
SELECT A DAY
Number of Records: 201,821;   Date Range: 2/21/06 - 10/19/14
 
SHARE

PRINT THIS DATA

[ ← Previous Day ]
WEATHER ALMANAC - APRIL 20, 2013
[ Next Day → ]
[ °C ]   °F
Weather ElementAverageHighLow
Temperature69.6 °F75.2 °F (12:35 am)62.6 °F (9:55 pm)
Dewpoint41.2 °F75.2 °F (12:35 am) (7:00 pm)
Humidity76.7 %100 % (12:35 am)65 % (12:15 pm)
Barometer30.08 in30.18 in (10:35 pm)30.00 in (3:15 am)
Wind Speed7.3 mph12.7 mph (8:15 pm)
Wind Gust18.4 mph (5:55 am)
Weather ElementAverage
Visibility9.9 mi
Wind DirectionESE (116.6 °)

Weather ElementTotal
Precipitation---
Cooling Degree Days3.9 (Base 65)
Growing Degree Days18.9 (Base 50)
Averaged from 70 records on April 20, 2013
WEATHER CONDITIONS BREAKOUT
WIND DIRECTION BREAKOUT
WEATHER BY HOUR - APRIL 20, 2013
[ °C ]   °F
Local TimeTemperatureDewpointHumidityBarometerVisibilityWind DirectionWind SpeedGust SpeedPrecipitationEventsConditions
12:35 AM75.2 °F75.2 °F100 %30.04 in10.0 miWSW (240°)5.8 mphScattered Clouds
12:55 AM75.2 °F0.0 °F30.04 in10.0 miWSW (250°)3.5 mphScattered Clouds
1:15 AM73.4 °F0.0 °F30.03 in10.0 miCalmScattered Clouds
1:35 AM73.4 °F0.0 °F30.03 in10.0 miSSW (210°)3.5 mphMostly Cloudy
1:55 AM75.2 °F0.0 °F30.02 in10.0 miSW (220°)3.5 mphMostly Cloudy
2:35 AM75.2 °F0.0 °F30.01 in10.0 miSouth (190°)3.5 mphMostly Cloudy
2:55 AM75.2 °F0.0 °F30.01 in10.0 miSSW (200°)4.6 mphOvercast
3:15 AM75.2 °F0.0 °F30.00 in10.0 miSouth (190°)4.6 mphMostly Cloudy
3:35 AM75.2 °F0.0 °F30.00 in7.0 miCalmScattered Clouds
3:55 AM73.4 °F0.0 °F30.00 in7.0 miSouth (190°)3.5 mphScattered Clouds
4:15 AM73.4 °F0.0 °F30.02 in7.0 miWNW (300°)8.1 mphMostly Cloudy
4:35 AM71.6 °F0.0 °F30.02 in10.0 miNW (320°)9.2 mphOvercast
4:55 AM71.6 °F0.0 °F30.02 in10.0 miNW (310°)9.2 mphLight Drizzle
5:15 AM69.8 °F0.0 °F30.03 in10.0 miNNW (330°)9.2 mphOvercast
5:35 AM69.8 °F0.0 °F30.04 in10.0 miNNW (340°)9.2 mphOvercast
5:55 AM68.0 °F0.0 °F30.03 in10.0 miNorth (360°)8.1 mph18.4 mphLight Drizzle
6:15 AM66.2 °F0.0 °F30.04 in10.0 miNorth (360°)10.4 mphOvercast
6:35 AM66.2 °F0.0 °F30.04 in10.0 miNorth (360°)5.8 mphOvercast
6:55 AM66.2 °F0.0 °F30.04 in10.0 miNorth (10°)6.9 mphOvercast
7:15 AM66.2 °F0.0 °F30.05 in10.0 miNNE (30°)5.8 mphOvercast
7:35 AM66.2 °F0.0 °F30.06 in10.0 miNE (40°)3.5 mphScattered Clouds
7:55 AM66.2 °F0.0 °F30.06 in10.0 miNorth (10°)4.6 mphClear
8:15 AM66.2 °F0.0 °F30.07 in10.0 miNorth (10°)10.4 mphClear
8:35 AM66.2 °F0.0 °F30.07 in10.0 miNorth (10°)9.2 mphScattered Clouds
8:55 AM68.0 °F60.8 °F78 %30.08 in10.0 miNorth (10°)6.9 mphScattered Clouds
9:15 AM68.0 °F60.8 °F78 %30.09 in10.0 miNorth (350°)11.5 mphOvercast
9:35 AM66.2 °F60.8 °F83 %30.10 in10.0 miNNW (340°)9.2 mphOvercast
9:55 AM66.2 °F60.8 °F83 %30.11 in10.0 miNorth (360°)11.5 mph16.1 mphOvercast
10:15 AM66.2 °F60.8 °F83 %30.12 in10.0 miNorth (10°)10.4 mph18.4 mphOvercast
10:35 AM66.2 °F60.8 °F83 %30.13 in10.0 miNNE (20°)8.1 mph16.1 mphOvercast
10:55 AM68.0 °F59.0 °F73 %30.12 in10.0 miNorth (360°)11.5 mphOvercast
11:15 AM69.8 °F60.8 °F73 %30.12 in10.0 miNE (40°)11.5 mphScattered Clouds
11:35 AM69.8 °F60.8 °F73 %30.12 in10.0 miNNE (30°)11.5 mphScattered Clouds
11:55 AM71.6 °F60.8 °F69 %30.11 in10.0 miNE (40°)9.2 mphClear
12:15 PM73.4 °F60.8 °F65 %30.11 in10.0 miNorth (10°)3.5 mphScattered Clouds
12:35 PM73.4 °F60.8 °F65 %30.11 in10.0 miNE (40°)4.6 mphMostly Cloudy
12:55 PM73.4 °F60.8 °F65 %30.11 in10.0 miNNE (30°)3.5 mphMostly Cloudy
1:15 PM73.4 °F62.6 °F69 %30.11 in10.0 miNE (40°)6.9 mphScattered Clouds
1:35 PM73.4 °F62.6 °F69 %30.10 in10.0 miNE (40°)6.9 mphScattered Clouds
1:55 PM73.4 °F62.6 °F69 %30.09 in10.0 miNNE (20°)8.1 mphScattered Clouds
2:15 PM73.4 °F62.6 °F69 %30.09 in10.0 miNorth (10°)6.9 mphClear
2:35 PM75.2 °F62.6 °F65 %30.09 in10.0 miNorth (10°)3.5 mphClear
2:55 PM75.2 °F62.6 °F65 %30.08 in10.0 miNNE (20°)6.9 mphScattered Clouds
3:15 PM75.2 °F62.6 °F65 %30.07 in10.0 miNE (40°)6.9 mphScattered Clouds
3:35 PM75.2 °F64.4 °F69 %30.07 in10.0 miNorth (360°)8.1 mphClear
3:55 PM75.2 °F62.6 °F65 %30.06 in10.0 miNorth (360°)8.1 mphScattered Clouds
4:15 PM75.2 °F64.4 °F69 %30.06 in10.0 miENE (70°)5.8 mphMostly Cloudy
4:35 PM73.4 °F62.6 °F69 %30.07 in10.0 miNorth (10°)4.6 mphMostly Cloudy
4:55 PM73.4 °F62.6 °F69 %30.07 in10.0 miNorth (10°)6.9 mphOvercast
5:15 PM71.6 °F62.6 °F73 %30.07 in10.0 miNorth (360°)8.1 mphOvercast
5:35 PM69.8 °F62.6 °F78 %30.06 in10.0 miNNE (30°)9.2 mphOvercast
5:55 PM69.8 °F62.6 °F78 %30.06 in10.0 miNE (50°)10.4 mphScattered Clouds
6:15 PM69.8 °F62.6 °F78 %30.06 in10.0 miNE (40°)8.1 mphClear
6:35 PM69.8 °F62.6 °F78 %30.07 in10.0 miNorth (10°)9.2 mphClear
6:55 PM68.0 °F60.8 °F78 %30.08 in10.0 miNNE (20°)8.1 mphScattered Clouds
7:15 PM68.0 °F60.8 °F78 %30.08 in10.0 miNE (50°)6.9 mphScattered Clouds
7:35 PM68.0 °F60.8 °F78 %30.09 in10.0 miNNE (20°)5.8 mphOvercast
7:55 PM66.2 °F60.8 °F83 %30.11 in10.0 miNNE (30°)9.2 mphOvercast
8:15 PM64.4 °F59.0 °F83 %30.10 in10.0 miNNE (30°)12.7 mphOvercast
8:35 PM64.4 °F59.0 °F83 %30.11 in10.0 miNE (40°)10.4 mphOvercast
8:55 PM64.4 °F60.8 °F88 %30.10 in10.0 miENE (70°)9.2 mphOvercast
9:15 PM64.4 °F60.8 °F88 %30.12 in10.0 miNE (50°)8.1 mphOvercast
9:35 PM64.4 °F60.8 °F88 %30.14 in10.0 miNNE (20°)6.9 mphOvercast
9:55 PM62.6 °F60.8 °F94 %30.15 in10.0 miNNE (30°)6.9 mphOvercast
10:15 PM62.6 °F59.0 °F88 %30.17 in10.0 miNNE (30°)8.1 mphOvercast
10:35 PM62.6 °F57.2 °F82 %30.18 in10.0 miNNE (30°)6.9 mphOvercast
10:55 PM62.6 °F57.2 °F82 %30.18 in10.0 miNNE (30°)8.1 mphOvercast
11:15 PM62.6 °F57.2 °F82 %30.18 in10.0 miNE (40°)9.2 mphOvercast
11:35 PM62.6 °F57.2 °F82 %30.18 in10.0 miNNE (30°)5.8 mphOvercast
11:55 PM62.6 °F57.2 °F82 %30.18 in10.0 miNE (40°)6.9 mphOvercast
Hourly data recorded from KPCM, located miles away from San Martiniano, Quintana Roo







STORIES FROM OUR PARTNERS